Santuari del Coll - Susqueda





Hora UTC 17:25
Temperatura 15.6 ºC
Humitat 74.0 %
Pressió 1023.2 hPa
Pluja 0.0 mm
Velocitat vent 4.8 km/h
Direcció vent SE

Dades diàries 2020-05-25



Hora UTC (hivern +1h; estiu +2h)
Temperatura (ºC) Humitat (%) Pressió (hPa) Velocitat vent (km/h) Precipitació (mm)
Hora UTC Aire Humitat Pressió Vel. Dir. Vel. Max Dir. Intent. màx 5 min.
00:05 14.6 59.0 1025.0 1.6 NE 1.6 0.0
00:10 14.7 60.0 1025.0 0.0 SSE 9.7 0.0
00:15 14.7 62.0 1025.0 1.6 SSE 8.0 0.0
00:20 14.7 63.0 1025.0 0.0 SSE 4.8 0.0
00:25 14.7 64.0 1024.9 0.0 SSE 4.8 0.0
00:30 14.7 64.0 1024.9 0.0 SE 1.6 0.0
00:35 14.6 65.0 1024.8 0.0 SE 3.2 0.0
00:40 14.6 67.0 1024.8 0.0 SE 3.2 0.0
00:45 14.4 69.0 1024.8 1.6 SSE 3.2 0.0
00:50 14.3 69.0 1024.8 1.6 SSE 3.2 0.0
00:55 14.2 68.0 1024.7 0.0 SSE 3.2 0.0
01:00 14.1 69.0 1024.7 1.6 S 3.2 0.0
01:05 13.9 70.0 1024.7 0.0 S 1.6 0.0
01:10 13.9 71.0 1024.7 0.0 S 1.6 0.0
01:15 13.9 73.0 1024.7 0.0 S 1.6 0.0
01:20 13.9 74.0 1024.6 0.0 S 0.0 0.0
01:25 13.9 76.0 1024.6 0.0 S 0.0 0.0
01:30 13.9 76.0 1024.5 1.6 S 3.2 0.0
01:35 13.8 75.0 1024.5 0.0 S 3.2 0.0
01:40 13.8 75.0 1024.5 1.6 S 3.2 0.0
01:45 13.8 76.0 1024.5 0.0 S 3.2 0.0
01:50 13.8 75.0 1024.3 3.2 S 3.2 0.0
01:55 13.8 73.0 1024.2 4.8 SSE 8.0 0.0
02:00 13.8 72.0 1024.2 0.0 SSE 8.0 0.0
02:05 13.8 71.0 1024.2 0.0 SSE 3.2 0.0
02:10 13.8 72.0 1024.2 0.0 SSE 0.0 0.0
02:15 13.8 74.0 1024.1 0.0 SSE 0.0 0.0
02:20 13.7 75.0 1024.0 0.0 SSE 0.0 0.0
02:25 13.7 75.0 1024.1 0.0 SSE 0.0 0.0
02:30 13.8 75.0 1024.0 1.6 SSE 4.8 0.0
02:35 13.8 75.0 1024.0 0.0 SSE 3.2 0.0
02:40 13.8 76.0 1024.0 1.6 SSE 3.2 0.0
02:45 13.8 75.0 1024.0 3.2 SE 4.8 0.0
02:50 13.7 74.0 1024.0 3.2 SE 9.7 0.0
02:55 13.7 74.0 1023.9 3.2 SSE 9.7 0.0
03:00 13.6 75.0 1024.0 3.2 SSE 8.0 0.0
03:05 13.5 76.0 1024.0 1.6 SSE 8.0 0.0
03:10 13.4 76.0 1024.0 1.6 SSE 4.8 0.0
03:15 13.4 76.0 1024.0 6.4 SSE 8.0 0.0
03:20 13.4 77.0 1023.9 4.8 SE 9.7 0.0
03:25 13.3 78.0 1023.9 8.0 SSE 9.7 0.0
03:30 13.2 79.0 1023.9 8.0 SSE 11.3 0.0
03:35 13.1 79.0 1023.9 8.0 SE 11.3 0.0
03:40 12.9 80.0 1023.8 4.8 SSE 11.3 0.0
03:45 12.8 80.0 1023.8 8.0 SSE 11.3 0.0
03:50 12.8 81.0 1023.8 6.4 SSE 9.7 0.0
03:55 12.7 81.0 1023.7 6.4 SSE 9.7 0.0
04:00 12.6 80.0 1023.7 3.2 SSE 11.3 0.0
04:05 12.6 80.0 1023.7 8.0 SSE 11.3 0.0
04:10 12.6 79.0 1023.7 6.4 SSE 11.3 0.0
04:15 12.4 78.0 1023.7 6.4 SSE 9.7 0.0
04:20 12.4 78.0 1023.8 3.2 SSE 8.0 0.0
04:25 12.4 78.0 1023.8 0.0 SSE 8.0 0.0
04:30 12.5 79.0 1023.8 0.0 SSE 8.0 0.0
04:35 12.6 79.0 1023.8 0.0 SSE 9.7 0.0
04:40 12.7 79.0 1023.9 0.0 SSE 9.7 0.0
04:45 12.8 79.0 1023.8 0.0 SSE 1.6 0.0
04:50 12.9 80.0 1024.0 0.0 SSE 1.6 0.0
04:55 12.9 81.0 1024.0 0.0 SSE 1.6 0.0
05:00 13.0 82.0 1024.0 0.0 W 4.8 0.0
05:05 13.0 82.0 1024.0 0.0 SW 4.8 0.0
05:10 13.1 82.0 1024.0 0.0 SW 1.6 0.0
05:15 13.1 81.0 1024.0 0.0 SW 1.6 0.0
05:20 13.1 82.0 1024.1 0.0 SW 3.2 0.0
05:25 13.2 82.0 1024.1 1.6 SW 4.8 0.0
05:30 13.3 83.0 1024.2 1.6 WSW 4.8 0.0
05:35 13.3 84.0 1024.2 0.0 W 4.8 0.0
05:40 13.3 84.0 1024.1 1.6 W 4.8 0.0
05:45 13.3 84.0 1024.2 3.2 WSW 8.0 0.0
05:50 13.3 84.0 1024.2 6.4 NW 11.3 0.0
05:55 13.3 84.0 1024.2 1.6 WNW 11.3 0.0
06:00 13.3 84.0 1024.3 1.6 SSW 11.3 0.0
06:05 13.3 84.0 1024.3 0.0 SSW 4.8 0.0
06:10 13.3 84.0 1024.4 0.0 W 3.2 0.0
06:15 13.2 84.0 1024.5 0.0 W 3.2 0.0
06:20 13.3 85.0 1024.6 3.2 NW 6.4 0.0
06:25 13.3 86.0 1024.6 1.6 SSE 6.4 0.0
06:30 13.3 86.0 1024.5 4.8 WNW 4.8 0.0
06:35 13.4 86.0 1024.5 1.6 NW 4.8 0.0
06:40 13.4 86.0 1024.5 0.0 NW 4.8 0.0
06:45 13.5 85.0 1024.6 1.6 ESE 4.8 0.0
06:50 13.5 85.0 1024.6 0.0 SE 4.8 0.0
06:55 13.6 85.0 1024.7 0.0 SE 3.2 0.0
07:00 13.6 84.0 1024.7 1.6 SE 6.4 0.0
07:05 13.7 84.0 1024.7 1.6 SSE 6.4 0.0
07:10 13.8 84.0 1024.7 0.0 NNW 6.4 0.0
07:15 13.9 84.0 1024.7 0.0 S 6.4 0.0
07:20 14.0 83.0 1024.6 0.0 NNW 6.4 0.0
07:25 14.2 84.0 1024.6 1.6 NW 6.4 0.0
07:30 14.5 83.0 1024.7 3.2 S 4.8 0.0
07:35 14.8 82.0 1024.6 4.8 NNW 6.4 0.0
07:40 14.9 80.0 1024.6 3.2 N 8.0 0.0
07:45 15.2 79.0 1024.6 3.2 NW 8.0 0.0
07:50 15.4 80.0 1024.5 3.2 NNW 6.4 0.0
07:55 15.7 79.0 1024.5 3.2 NNW 6.4 0.0
08:00 16.0 80.0 1024.4 1.6 NNW 11.3 0.0
08:05 16.7 79.0 1024.4 8.0 N 9.7 0.0
08:10 17.2 75.0 1024.4 1.6 N 9.7 0.0
08:15 17.1 70.0 1024.2 3.2 NW 11.3 0.0
08:20 16.8 70.0 1024.2 0.0 N 11.3 0.0
08:25 16.6 73.0 1024.2 6.4 N 6.4 0.0
08:30 16.4 74.0 1024.3 1.6 N 9.7 0.0
08:35 16.3 74.0 1024.2 3.2 NW 9.7 0.0
08:40 16.3 75.0 1024.3 1.6 WSW 16.1 0.0
08:45 16.3 73.0 1024.2 0.0 NW 6.4 0.0
08:50 16.5 73.0 1024.2 1.6 N 6.4 0.0
08:55 16.7 72.0 1024.3 3.2 N 6.4 0.0
09:00 17.1 74.0 1024.3 4.8 ENE 6.4 0.0
09:05 17.5 73.0 1024.3 1.6 NNW 8.0 0.0
09:10 17.8 71.0 1024.3 6.4 NNW 8.0 0.0
09:15 17.9 67.0 1024.3 3.2 E 8.0 0.0
09:20 17.9 68.0 1024.4 1.6 NNW 6.4 0.0
09:25 18.1 70.0 1024.5 3.2 NNE 8.0 0.0
09:30 17.9 69.0 1024.5 4.8 NNE 9.7 0.0
09:35 17.8 71.0 1024.6 3.2 NNW 9.7 0.0
09:40 17.8 72.0 1024.7 1.6 NNE 9.7 0.0
09:45 17.7 72.0 1024.7 0.0 NNW 9.7 0.0
09:50 17.9 72.0 1024.7 1.6 ESE 8.0 0.0
09:55 18.0 71.0 1024.7 0.0 NNW 8.0 0.0
10:00 17.9 71.0 1024.7 3.2 N 12.9 0.0
10:05 17.9 72.0 1024.7 3.2 W 8.0 0.0
10:10 18.0 72.0 1024.7 3.2 NW 12.9 0.0
10:15 17.9 72.0 1024.7 1.6 NNW 12.9 0.0
10:20 17.9 71.0 1024.7 0.0 N 6.4 0.0
10:25 17.9 71.0 1024.7 0.0 N 6.4 0.0
10:30 18.0 73.0 1024.7 1.6 NNE 6.4 0.0
10:35 18.0 72.0 1024.7 1.6 ENE 6.4 0.0
10:40 17.8 71.0 1024.7 3.2 WNW 9.7 0.0
10:45 17.6 73.0 1024.7 3.2 N 9.7 0.0
10:50 17.4 73.0 1024.7 1.6 NNW 6.4 0.0
10:55 17.4 74.0 1024.7 3.2 NNW 4.8 0.0
11:00 17.4 75.0 1024.7 3.2 NW 4.8 0.0
11:05 17.3 75.0 1024.7 0.0 N 6.4 0.0
11:10 17.4 75.0 1024.7 1.6 N 6.4 0.0
11:15 17.3 76.0 1024.7 4.8 NE 8.0 0.0
11:20 17.2 77.0 1024.6 3.2 NNW 6.4 0.0
11:25 17.3 76.0 1024.6 3.2 NNE 6.4 0.0
11:30 17.4 76.0 1024.7 1.6 ENE 8.0 0.0
11:35 17.3 76.0 1024.7 0.0 SSE 8.0 0.0
11:40 17.4 77.0 1024.8 0.0 E 4.8 0.0
11:45 17.4 76.0 1024.8 0.0 E 4.8 0.0
11:50 17.4 76.0 1024.8 0.0 E 1.6 0.0
11:55 17.3 76.0 1024.8 0.0 E 0.0 0.0
12:00 17.4 77.0 1024.8 0.0 E 0.0 0.0
12:05 17.7 77.0 1024.8 0.0 E 0.0 0.0
12:10 17.7 76.0 1024.7 0.0 E 0.0 0.0
12:15 17.8 76.0 1024.7 0.0 E 0.0 0.0
12:20 17.9 76.0 1024.7 0.0 E 0.0 0.0
12:25 18.0 75.0 1024.6 0.0 E 0.0 0.0
12:30 17.8 76.0 1024.6 0.0 E 0.0 0.0
12:35 17.7 76.0 1024.5 1.6 E 4.8 0.0
12:40 17.6 77.0 1024.5 3.2 SE 6.4 0.0
12:45 17.6 78.0 1024.5 4.8 E 6.4 0.0
12:50 17.7 77.0 1024.5 0.0 ESE 6.4 0.0
12:55 17.8 77.0 1024.3 3.2 ESE 9.7 0.0
13:00 17.8 76.0 1024.3 1.6 E 9.7 0.0
13:05 17.9 76.0 1024.2 1.6 ESE 6.4 0.0
13:10 17.9 75.0 1024.1 3.2 SE 9.7 0.0
13:15 17.9 76.0 1024.1 4.8 SSE 9.7 0.0
13:20 18.0 74.0 1024.1 1.6 E 9.7 0.0
13:25 18.3 74.0 1024.1 4.8 ESE 9.7 0.0
13:30 18.4 74.0 1024.1 9.7 ESE 9.7 0.0
13:35 18.4 73.0 1024.1 1.6 ESE 16.1 0.0
13:40 18.4 74.0 1024.1 1.6 SE 16.1 0.0
13:45 18.3 74.0 1024.1 3.2 SE 12.9 0.0
13:50 18.3 75.0 1024.1 3.2 E 12.9 0.0
13:55 18.2 75.0 1024.0 4.8 ESE 11.3 0.0
14:00 18.1 73.0 1023.9 3.2 ESE 11.3 0.0
14:05 18.1 73.0 1023.9 1.6 SE 11.3 0.0
14:10 18.3 73.0 1023.8 8.0 E 11.3 0.0
14:15 18.3 72.0 1023.8 11.3 E 12.9 0.0
14:20 18.1 71.0 1023.8 6.4 E 14.5 0.0
14:25 18.1 70.0 1023.7 8.0 SE 14.5 0.0
14:30 18.2 70.0 1023.7 3.2 E 12.9 0.0
14:35 18.3 69.0 1023.7 4.8 ENE 16.1 0.0
14:40 18.2 71.0 1023.7 6.4 SSE 16.1 0.0
14:45 17.9 70.0 1023.6 8.0 ESE 11.3 0.0
14:50 18.1 71.0 1023.6 11.3 SE 11.3 0.0
14:55 18.4 69.0 1023.5 11.3 ESE 12.9 0.0
15:00 18.8 69.0 1023.5 9.7 SSE 14.5 0.0
15:05 18.9 64.0 1023.5 4.8 E 14.5 0.0
15:10 19.1 66.0 1023.5 6.4 ESE 14.5 0.0
15:15 19.2 66.0 1023.5 6.4 E 16.1 0.0
15:20 19.3 66.0 1023.5 9.7 ESE 16.1 0.0
15:25 19.2 66.0 1023.5 16.1 ENE 16.1 0.0
15:30 19.0 67.0 1023.4 4.8 SE 16.1 0.0
15:35 19.0 66.0 1023.4 9.7 E 16.1 0.0
15:40 18.8 66.0 1023.4 12.9 E 17.7 0.0
15:45 18.6 67.0 1023.4 14.5 ESE 17.7 0.0
15:50 18.4 66.0 1023.4 6.4 ESE 16.1 0.0
15:55 18.3 68.0 1023.4 4.8 ESE 16.1 0.0
16:00 18.3 66.0 1023.3 9.7 E 16.1 0.0
16:05 18.1 67.0 1023.3 9.7 ESE 16.1 0.0
16:10 17.8 67.0 1023.3 6.4 E 16.1 0.0
16:15 17.7 68.0 1023.3 4.8 E 14.5 0.0
16:20 17.5 70.0 1023.3 9.7 E 14.5 0.0
16:25 17.3 70.0 1023.4 6.4 SE 16.1 0.0
16:30 17.2 70.0 1023.3 4.8 SE 12.9 0.0
16:35 16.9 69.0 1023.3 6.4 SE 16.1 0.0
16:40 16.8 70.0 1023.3 11.3 ESE 16.1 0.0
16:45 16.7 70.0 1023.3 8.0 ESE 12.9 0.0
16:50 16.6 71.0 1023.3 3.2 ESE 14.5 0.0
16:55 16.4 71.0 1023.2 11.3 ESE 14.5 0.0
17:00 16.2 72.0 1023.3 3.2 SE 14.5 0.0
17:05 16.0 71.0 1023.2 11.3 ESE 14.5 0.0
17:10 15.9 72.0 1023.3 6.4 ESE 12.9 0.0
17:15 15.8 72.0 1023.2 6.4 SE 11.3 0.0
17:20 15.6 73.0 1023.3 6.4 SSE 14.5 0.0
17:25 15.6 74.0 1023.2 4.8 SE 16.1 0.0
Màxima 19.3 86.0 1025.0 16.1 ENE 17.7 0.0
Mínima 12.4 59.0 1023.2
Total 0.0